Time,TemperatureF,DewpointF,PressureIn,WindDirection,WindDirectionDegrees,WindSpeedMPH,WindSpeedGustMPH,Humidity,HourlyPrecipIn,Conditions,Clouds,dailyrainin,SoftwareType,DateUTC
2013-11-29 00:01:00,23.8,16.7,30.51,SW,216,0.0,0.0,74,0.00,,,0.00,Wunderground v.1.15,2013-11-29 05:01:00,
2013-11-29 00:06:00,23.8,16.7,30.51,SW,216,0.0,0.0,74,0.00,,,0.00,Wunderground v.1.15,2013-11-29 05:06:00,
2013-11-29 00:11:00,23.8,17.3,30.51,SW,216,0.0,2.0,76,0.00,,,0.00,Wunderground v.1.15,2013-11-29 05:11:00,
2013-11-29 00:21:00,23.9,17.1,30.51,SW,216,0.0,0.0,75,0.00,,,0.00,Wunderground v.1.15,2013-11-29 05:21:00,
2013-11-29 00:31:00,23.9,17.4,30.52,SW,216,0.0,0.0,76,0.00,,,0.00,Wunderground v.1.15,2013-11-29 05:31:00,
2013-11-29 00:41:00,23.8,17.3,30.52,SW,216,0.0,0.0,76,0.00,,,0.00,Wunderground v.1.15,2013-11-29 05:41:00,
2013-11-29 00:51:00,23.5,17.6,30.52,SW,216,0.0,0.0,78,0.00,,,0.00,Wunderground v.1.15,2013-11-29 05:51:00,
2013-11-29 01:01:00,23.1,17.6,30.52,SW,216,0.0,0.0,79,0.00,,,0.00,Wunderground v.1.15,2013-11-29 06:01:00,
2013-11-29 01:10:00,23.2,17.7,30.52,SW,216,0.0,0.0,79,0.00,,,0.00,Wunderground v.1.15,2013-11-29 06:10:00,
2013-11-29 01:20:00,22.9,17.1,30.53,SW,216,0.0,0.0,78,0.00,,,0.00,Wunderground v.1.15,2013-11-29 06:20:00,
2013-11-29 01:30:00,22.9,17.1,30.53,SW,216,0.0,0.0,78,0.00,,,0.00,Wunderground v.1.15,2013-11-29 06:30:00,
2013-11-29 01:40:00,22.8,16.7,30.53,SW,216,0.0,0.0,77,0.00,,,0.00,Wunderground v.1.15,2013-11-29 06:40:00,
2013-11-29 01:50:00,22.7,17.5,30.54,SW,216,0.0,0.0,80,0.00,,,0.00,Wunderground v.1.15,2013-11-29 06:50:00,
2013-11-29 02:00:00,22.8,17.3,30.54,SW,216,0.0,0.0,79,0.00,,,0.00,Wunderground v.1.15,2013-11-29 07:00:00,
2013-11-29 02:10:00,23.0,17.2,30.54,SW,216,0.0,0.0,78,0.00,,,0.00,Wunderground v.1.15,2013-11-29 07:10:00,
2013-11-29 02:15:00,22.9,17.4,30.54,SW,216,0.0,0.0,79,0.00,,,0.00,Wunderground v.1.15,2013-11-29 07:15:00,
2013-11-29 02:20:00,22.9,17.4,30.54,SW,216,0.0,0.0,79,0.00,,,0.00,Wunderground v.1.15,2013-11-29 07:20:00,
2013-11-29 02:30:00,23.1,17.3,30.55,SW,216,0.0,0.0,78,0.00,,,0.00,Wunderground v.1.15,2013-11-29 07:30:00,
2013-11-29 02:40:00,23.3,17.2,30.55,SW,216,0.0,0.0,77,0.00,,,0.00,Wunderground v.1.15,2013-11-29 07:40:00,
2013-11-29 02:50:00,23.3,17.2,30.56,SW,216,0.0,0.0,77,0.00,,,0.00,Wunderground v.1.15,2013-11-29 07:50:00,
2013-11-29 03:00:00,23.4,17.3,30.56,SW,216,0.0,0.0,77,0.00,,,0.00,Wunderground v.1.15,2013-11-29 08:00:00,
2013-11-29 03:10:00,23.6,17.1,30.56,SW,216,0.0,0.0,76,0.00,,,0.00,Wunderground v.1.15,2013-11-29 08:10:00,
2013-11-29 03:20:00,23.3,17.2,30.56,SW,216,0.0,0.0,77,0.00,,,0.00,Wunderground v.1.15,2013-11-29 08:20:00,
2013-11-29 03:30:00,23.0,16.9,30.57,SW,216,0.0,0.0,77,0.00,,,0.00,Wunderground v.1.15,2013-11-29 08:30:00,
2013-11-29 03:40:00,22.5,16.7,30.57,SW,216,0.0,0.0,78,0.00,,,0.00,Wunderground v.1.15,2013-11-29 08:40:00,
2013-11-29 03:50:00,22.4,16.9,30.57,SW,216,0.0,0.0,79,0.00,,,0.00,Wunderground v.1.15,2013-11-29 08:50:00,
2013-11-29 04:00:00,21.8,16.3,30.57,SW,216,0.0,0.0,79,0.00,,,0.00,Wunderground v.1.15,2013-11-29 09:00:00,
2013-11-29 04:10:00,21.2,16.3,30.58,SW,216,0.0,0.0,81,0.00,,,0.00,Wunderground v.1.15,2013-11-29 09:10:00,
2013-11-29 04:20:00,20.9,16.0,30.58,SW,216,0.0,0.0,81,0.00,,,0.00,Wunderground v.1.15,2013-11-29 09:20:00,
2013-11-29 04:30:00,20.5,15.9,30.58,SW,216,0.0,0.0,82,0.00,,,0.00,Wunderground v.1.15,2013-11-29 09:30:00,
2013-11-29 04:40:00,20.6,16.3,30.59,SW,216,0.0,2.0,83,0.00,,,0.00,Wunderground v.1.15,2013-11-29 09:40:00,
2013-11-29 04:50:00,20.8,16.5,30.59,SW,216,0.0,0.0,83,0.00,,,0.00,Wunderground v.1.15,2013-11-29 09:50:00,
2013-11-29 05:00:00,20.4,15.8,30.59,SW,216,0.0,0.0,82,0.00,,,0.00,Wunderground v.1.15,2013-11-29 10:00:00,
2013-11-29 05:10:00,20.0,15.7,30.60,SW,216,0.0,0.0,83,0.00,,,0.00,Wunderground v.1.15,2013-11-29 10:10:00,
2013-11-29 05:20:00,19.8,15.7,30.60,SW,216,0.0,0.0,84,0.00,,,0.00,Wunderground v.1.15,2013-11-29 10:20:00,
2013-11-29 05:30:00,19.9,15.8,30.60,SW,216,0.0,0.0,84,0.00,,,0.00,Wunderground v.1.15,2013-11-29 10:30:00,
2013-11-29 05:39:00,19.8,15.7,30.60,SW,216,0.0,0.0,84,0.00,,,0.00,Wunderground v.1.15,2013-11-29 10:39:00,
2013-11-29 05:50:00,19.6,15.8,30.61,SW,216,0.0,0.0,85,0.00,,,0.00,Wunderground v.1.15,2013-11-29 10:50:00,
2013-11-29 06:00:00,19.6,15.8,30.60,SW,216,0.0,0.0,85,0.00,,,0.00,Wunderground v.1.15,2013-11-29 11:00:00,
2013-11-29 06:10:00,19.8,16.3,30.61,SW,216,0.0,0.0,86,0.00,,,0.00,Wunderground v.1.15,2013-11-29 11:10:00,
2013-11-29 06:20:00,19.6,16.1,30.62,SW,216,0.0,0.0,86,0.00,,,0.00,Wunderground v.1.15,2013-11-29 11:20:00,
2013-11-29 06:29:00,19.8,16.6,30.63,SW,216,0.0,0.0,87,0.00,,,0.00,Wunderground v.1.15,2013-11-29 11:29:00,
2013-11-29 06:44:00,19.9,16.7,30.64,SW,216,0.0,0.0,87,0.00,,,0.00,Wunderground v.1.15,2013-11-29 11:44:00,
2013-11-29 06:49:00,19.8,16.6,30.64,SW,216,0.0,0.0,87,0.00,,,0.00,Wunderground v.1.15,2013-11-29 11:49:00,
2013-11-29 06:59:00,19.6,16.4,30.64,SW,216,0.0,0.0,87,0.00,,,0.00,Wunderground v.1.15,2013-11-29 11:59:00,
2013-11-29 07:09:00,19.3,16.1,30.64,SW,216,0.0,0.0,87,0.00,,,0.00,Wunderground v.1.15,2013-11-29 12:09:00,
2013-11-29 07:20:00,19.1,16.1,30.64,SW,216,0.0,0.0,88,0.00,,,0.00,Wunderground v.1.15,2013-11-29 12:20:00,
2013-11-29 07:29:00,19.0,16.0,30.65,SW,216,0.0,0.0,88,0.00,,,0.00,Wunderground v.1.15,2013-11-29 12:29:00,
2013-11-29 07:39:00,18.9,16.2,30.65,SW,216,0.0,0.0,89,0.00,,,0.00,Wunderground v.1.15,2013-11-29 12:39:00,
2013-11-29 07:49:00,19.0,16.3,30.66,SW,216,0.0,0.0,89,0.00,,,0.00,Wunderground v.1.15,2013-11-29 12:49:00,
2013-11-29 07:59:00,19.2,16.5,30.66,SW,216,0.0,0.0,89,0.00,,,0.00,Wunderground v.1.15,2013-11-29 12:59:00,
2013-11-29 08:09:00,19.4,16.7,30.67,SW,216,0.0,0.0,89,0.00,,,0.00,Wunderground v.1.15,2013-11-29 13:09:00,
2013-11-29 08:19:00,20.3,17.6,30.67,SW,216,0.0,0.0,89,0.00,,,0.00,Wunderground v.1.15,2013-11-29 13:19:00,
2013-11-29 08:29:00,21.7,19.0,30.67,SW,216,0.0,0.0,89,0.00,,,0.00,Wunderground v.1.15,2013-11-29 13:29:00,
2013-11-29 08:39:00,23.6,20.8,30.67,SW,216,0.0,0.0,89,0.00,,,0.00,Wunderground v.1.15,2013-11-29 13:39:00,
2013-11-29 08:49:00,24.9,21.6,30.67,SW,216,0.0,0.0,87,0.00,,,0.00,Wunderground v.1.15,2013-11-29 13:49:00,
2013-11-29 08:59:00,25.7,21.5,30.68,SW,216,0.0,1.0,84,0.00,,,0.00,Wunderground v.1.15,2013-11-29 13:59:00,
2013-11-29 09:09:00,26.4,21.9,30.68,SW,216,0.0,0.0,83,0.00,,,0.00,Wunderground v.1.15,2013-11-29 14:09:00,
2013-11-29 09:19:00,27.1,21.7,30.68,SW,216,0.0,1.0,80,0.00,,,0.00,Wunderground v.1.15,2013-11-29 14:19:00,
2013-11-29 09:29:00,27.4,21.1,30.68,SW,216,1.0,1.0,77,0.00,,,0.00,Wunderground v.1.15,2013-11-29 14:29:00,
2013-11-29 09:39:00,27.6,20.7,30.68,NNE,28,2.0,2.0,75,0.00,,,0.00,Wunderground v.1.15,2013-11-29 14:39:00,
2013-11-29 09:49:00,27.8,21.2,30.68,NNE,28,2.0,2.0,76,0.00,,,0.00,Wunderground v.1.15,2013-11-29 14:49:00,
2013-11-29 09:59:00,28.5,21.9,30.69,NNE,28,1.0,3.0,76,0.00,,,0.00,Wunderground v.1.15,2013-11-29 14:59:00,
2013-11-29 10:09:00,29.2,22.6,30.69,NE,39,2.0,2.0,76,0.00,,,0.00,Wunderground v.1.15,2013-11-29 15:09:00,
2013-11-29 10:19:00,29.8,22.5,30.69,NNE,27,2.0,3.0,74,0.00,,,0.00,Wunderground v.1.15,2013-11-29 15:19:00,
2013-11-29 10:29:00,30.4,22.8,30.69,NE,53,2.0,2.0,73,0.00,,,0.00,Wunderground v.1.15,2013-11-29 15:29:00,
2013-11-29 10:39:00,30.9,22.9,30.69,ENE,70,4.0,4.0,72,0.00,,,0.00,Wunderground v.1.15,2013-11-29 15:39:00,
2013-11-29 10:49:00,31.4,23.1,30.70,ENE,66,3.0,3.0,71,0.00,,,0.00,Wunderground v.1.15,2013-11-29 15:49:00,
2013-11-29 10:59:00,31.9,23.6,30.70,East,89,4.0,5.0,71,0.00,,,0.00,Wunderground v.1.15,2013-11-29 15:59:00,
2013-11-29 11:09:00,32.7,24.0,30.70,ESE,120,3.0,5.0,70,0.00,,,0.00,Wunderground v.1.15,2013-11-29 16:09:00,
2013-11-29 11:19:00,33.0,23.6,30.69,East,101,4.0,5.0,68,0.00,,,0.00,Wunderground v.1.15,2013-11-29 16:19:00,
2013-11-29 11:29:00,33.1,23.0,30.69,North,360,4.0,4.0,66,0.00,,,0.00,Wunderground v.1.15,2013-11-29 16:29:00,
2013-11-29 11:39:00,33.7,22.8,30.69,ENE,66,3.0,3.0,64,0.00,,,0.00,Wunderground v.1.15,2013-11-29 16:39:00,
2013-11-29 11:49:00,34.2,22.5,30.69,ESE,107,2.0,4.0,62,0.00,,,0.00,Wunderground v.1.15,2013-11-29 16:49:00,
2013-11-29 11:59:00,34.3,22.2,30.68,ESE,110,3.0,3.0,61,0.00,,,0.00,Wunderground v.1.15,2013-11-29 16:59:00,
2013-11-29 12:09:00,34.6,22.9,30.68,SE,138,3.0,3.0,62,0.00,,,0.00,Wunderground v.1.15,2013-11-29 17:09:00,
2013-11-29 12:19:00,34.5,22.0,30.67,East,96,4.0,4.0,60,0.00,,,0.00,Wunderground v.1.15,2013-11-29 17:19:00,
2013-11-29 12:29:00,35.1,23.0,30.67,ESE,116,4.0,4.0,61,0.00,,,0.00,Wunderground v.1.15,2013-11-29 17:29:00,
2013-11-29 12:39:00,35.4,22.9,30.67,SSE,165,3.0,3.0,60,0.00,,,0.00,Wunderground v.1.15,2013-11-29 17:39:00,
2013-11-29 12:49:00,35.9,23.0,30.66,North,355,3.0,3.0,59,0.00,,,0.00,Wunderground v.1.15,2013-11-29 17:49:00,
2013-11-29 12:59:00,36.1,22.7,30.66,NNE,15,2.0,2.0,58,0.00,,,0.00,Wunderground v.1.15,2013-11-29 17:59:00,
2013-11-29 13:08:00,36.4,23.0,30.66,East,98,2.0,5.0,58,0.00,,,0.00,Wunderground v.1.15,2013-11-29 18:08:00,
2013-11-29 13:18:00,36.5,23.1,30.66,SE,146,3.0,3.0,58,0.00,,,0.00,Wunderground v.1.15,2013-11-29 18:18:00,
2013-11-29 13:28:00,36.9,22.2,30.65,ESE,121,3.0,3.0,55,0.00,,,0.00,Wunderground v.1.15,2013-11-29 18:28:00,
2013-11-29 13:39:00,37.3,22.2,30.65,SSE,155,2.0,2.0,54,0.00,,,0.00,Wunderground v.1.15,2013-11-29 18:39:00,
2013-11-29 13:49:00,37.7,22.5,30.64,ENE,74,2.0,3.0,54,0.00,,,0.00,Wunderground v.1.15,2013-11-29 18:49:00,
2013-11-29 13:58:00,37.8,23.1,30.64,East,85,3.0,5.0,55,0.00,,,0.00,Wunderground v.1.15,2013-11-29 18:58:00,
2013-11-29 14:08:00,37.8,22.6,30.64,East,99,3.0,3.0,54,0.00,,,0.00,Wunderground v.1.15,2013-11-29 19:08:00,
2013-11-29 14:18:00,37.6,22.0,30.64,East,88,3.0,3.0,53,0.00,,,0.00,Wunderground v.1.15,2013-11-29 19:18:00,
2013-11-29 14:28:00,38.2,22.1,30.64,NE,50,2.0,2.0,52,0.00,,,0.00,Wunderground v.1.15,2013-11-29 19:28:00,
2013-11-29 14:38:00,38.1,21.5,30.63,East,95,3.0,3.0,51,0.00,,,0.00,Wunderground v.1.15,2013-11-29 19:38:00,
2013-11-29 14:48:00,38.0,22.4,30.63,East,92,3.0,3.0,53,0.00,,,0.00,Wunderground v.1.15,2013-11-29 19:48:00,
2013-11-29 14:58:00,38.3,21.7,30.63,East,98,2.0,2.0,51,0.00,,,0.00,Wunderground v.1.15,2013-11-29 19:58:00,
2013-11-29 15:08:00,38.8,22.7,30.63,ENE,70,1.0,1.0,52,0.00,,,0.00,Wunderground v.1.15,2013-11-29 20:08:00,
2013-11-29 15:18:00,38.4,21.4,30.63,SE,136,3.0,3.0,50,0.00,,,0.00,Wunderground v.1.15,2013-11-29 20:18:00,
2013-11-29 15:28:00,38.3,21.3,30.63,ESE,122,4.0,5.0,50,0.00,,,0.00,Wunderground v.1.15,2013-11-29 20:28:00,
2013-11-29 15:38:00,38.2,20.7,30.63,ESE,121,2.0,2.0,49,0.00,,,0.00,Wunderground v.1.15,2013-11-29 20:38:00,
2013-11-29 15:48:00,38.1,20.6,30.63,ESE,103,3.0,5.0,49,0.00,,,0.00,Wunderground v.1.15,2013-11-29 20:48:00,
2013-11-29 15:58:00,37.8,20.3,30.63,ESE,116,3.0,3.0,49,0.00,,,0.00,Wunderground v.1.15,2013-11-29 20:58:00,
2013-11-29 16:08:00,37.6,20.6,30.63,ESE,122,3.0,3.0,50,0.00,,,0.00,Wunderground v.1.15,2013-11-29 21:08:00,
2013-11-29 16:18:00,37.0,21.4,30.63,ESE,122,3.0,3.0,53,0.00,,,0.00,Wunderground v.1.15,2013-11-29 21:18:00,
2013-11-29 16:28:00,36.4,21.8,30.63,ESE,122,2.0,2.0,55,0.00,,,0.00,Wunderground v.1.15,2013-11-29 21:28:00,
2013-11-29 16:38:00,36.3,22.5,30.64,ESE,122,2.0,2.0,57,0.00,,,0.00,Wunderground v.1.15,2013-11-29 21:38:00,
2013-11-29 16:48:00,36.2,22.0,30.64,ESE,122,1.0,1.0,56,0.00,,,0.00,Wunderground v.1.15,2013-11-29 21:48:00,
2013-11-29 16:58:00,35.9,21.7,30.64,ESE,122,1.0,1.0,56,0.00,,,0.00,Wunderground v.1.15,2013-11-29 21:58:00,
2013-11-29 17:08:00,35.3,21.6,30.64,ESE,122,2.0,2.0,57,0.00,,,0.00,Wunderground v.1.15,2013-11-29 22:08:00,
2013-11-29 17:18:00,34.7,21.0,30.63,ESE,122,1.0,1.0,57,0.00,,,0.00,Wunderground v.1.15,2013-11-29 22:18:00,
2013-11-29 17:28:00,34.5,21.2,30.63,ESE,122,1.0,1.0,58,0.00,,,0.00,Wunderground v.1.15,2013-11-29 22:28:00,
2013-11-29 17:38:00,34.1,20.9,30.62,ESE,122,1.0,1.0,58,0.00,,,0.00,Wunderground v.1.15,2013-11-29 22:38:00,
2013-11-29 17:48:00,33.8,21.0,30.62,ESE,122,0.0,0.0,59,0.00,,,0.00,Wunderground v.1.15,2013-11-29 22:48:00,
2013-11-29 17:58:00,33.5,20.7,30.62,ESE,122,0.0,0.0,59,0.00,,,0.00,Wunderground v.1.15,2013-11-29 22:58:00,
2013-11-29 18:03:00,33.4,21.0,30.63,ESE,122,0.0,0.0,60,0.00,,,0.00,Wunderground v.1.15,2013-11-29 23:03:00,
2013-11-29 18:13:00,32.7,20.7,30.62,ESE,122,0.0,0.0,61,0.00,,,0.00,Wunderground v.1.15,2013-11-29 23:13:00,
2013-11-29 18:18:00,32.3,20.7,30.62,ESE,122,0.0,0.0,62,0.00,,,0.00,Wunderground v.1.15,2013-11-29 23:18:00,
2013-11-29 18:28:00,31.9,20.7,30.62,ESE,122,0.0,0.0,63,0.00,,,0.00,Wunderground v.1.15,2013-11-29 23:28:00,
2013-11-29 18:38:00,31.6,20.4,30.63,ESE,122,0.0,0.0,63,0.00,,,0.00,Wunderground v.1.15,2013-11-29 23:38:00,
2013-11-29 18:48:00,31.0,20.2,30.63,ESE,122,0.0,0.0,64,0.00,,,0.00,Wunderground v.1.15,2013-11-29 23:48:00,
2013-11-29 18:58:00,30.5,19.8,30.63,ESE,122,0.0,0.0,64,0.00,,,0.00,Wunderground v.1.15,2013-11-29 23:58:00,
2013-11-29 19:03:00,30.3,20.3,30.63,ESE,122,0.0,0.0,66,0.00,,,0.00,Wunderground v.1.15,2013-11-30 00:03:00,
2013-11-29 19:08:00,30.1,20.1,30.63,ESE,122,0.0,0.0,66,0.00,,,0.00,Wunderground v.1.15,2013-11-30 00:08:00,
2013-11-29 19:18:00,29.5,20.6,30.62,ESE,122,1.0,2.0,69,0.00,,,0.00,Wunderground v.1.15,2013-11-30 00:18:00,
2013-11-29 19:28:00,29.5,20.6,30.62,ESE,122,2.0,3.0,69,0.00,,,0.00,Wunderground v.1.15,2013-11-30 00:28:00,
2013-11-29 19:38:00,29.6,21.0,30.62,ESE,122,3.0,3.0,70,0.00,,,0.00,Wunderground v.1.15,2013-11-30 00:38:00,
2013-11-29 19:48:00,29.8,21.5,30.62,ESE,122,2.0,3.0,71,0.00,,,0.00,Wunderground v.1.15,2013-11-30 00:48:00,
2013-11-29 19:58:00,29.2,21.0,30.62,ESE,122,3.0,3.0,71,0.00,,,0.00,Wunderground v.1.15,2013-11-30 00:58:00,
2013-11-29 20:08:00,28.9,21.0,30.62,ESE,122,2.0,3.0,72,0.00,,,0.00,Wunderground v.1.15,2013-11-30 01:08:00,
2013-11-29 20:18:00,29.0,21.7,30.62,East,98,3.0,3.0,74,0.00,,,0.00,Wunderground v.1.15,2013-11-30 01:18:00,
2013-11-29 20:28:00,29.4,21.8,30.62,East,91,4.0,4.0,73,0.00,,,0.00,Wunderground v.1.15,2013-11-30 01:28:00,
2013-11-29 20:38:00,29.6,22.0,30.62,East,95,4.0,4.0,73,0.00,,,0.00,Wunderground v.1.15,2013-11-30 01:38:00,
2013-11-29 20:48:00,29.2,21.9,30.62,ESE,105,4.0,4.0,74,0.00,,,0.00,Wunderground v.1.15,2013-11-30 01:48:00,
2013-11-29 20:58:00,28.3,21.7,30.61,ESE,109,4.0,4.0,76,0.00,,,0.00,Wunderground v.1.15,2013-11-30 01:58:00,
2013-11-29 21:08:00,28.1,21.8,30.61,ESE,114,5.0,7.0,77,0.00,,,0.00,Wunderground v.1.15,2013-11-30 02:08:00,
2013-11-29 21:18:00,28.1,21.8,30.60,ESE,106,4.0,4.0,77,0.00,,,0.00,Wunderground v.1.15,2013-11-30 02:18:00,
2013-11-29 21:28:00,28.0,21.7,30.60,ESE,110,4.0,4.0,77,0.00,,,0.00,Wunderground v.1.15,2013-11-30 02:28:00,
2013-11-29 21:38:00,27.7,21.7,30.60,ESE,114,4.0,4.0,78,0.00,,,0.00,Wunderground v.1.15,2013-11-30 02:38:00,
2013-11-29 21:48:00,27.5,21.8,30.60,ESE,118,4.0,5.0,79,0.00,,,0.00,Wunderground v.1.15,2013-11-30 02:48:00,
2013-11-29 21:58:00,27.5,21.8,30.60,ESE,102,4.0,4.0,79,0.00,,,0.00,Wunderground v.1.15,2013-11-30 02:58:00,
2013-11-29 22:08:00,27.4,21.7,30.60,ESE,107,4.0,5.0,79,0.00,,,0.00,Wunderground v.1.15,2013-11-30 03:08:00,
2013-11-29 22:18:00,27.2,21.5,30.60,ESE,107,4.0,4.0,79,0.00,,,0.00,Wunderground v.1.15,2013-11-30 03:18:00,
2013-11-29 22:28:00,26.8,21.5,30.60,ESE,107,4.0,4.0,80,0.00,,,0.00,Wunderground v.1.15,2013-11-30 03:28:00,
2013-11-29 22:38:00,26.8,21.5,30.59,ESE,114,4.0,5.0,80,0.00,,,0.00,Wunderground v.1.15,2013-11-30 03:38:00,
2013-11-29 22:48:00,26.7,21.4,30.59,ESE,109,4.0,4.0,80,0.00,,,0.00,Wunderground v.1.15,2013-11-30 03:48:00,
2013-11-29 22:58:00,26.6,21.6,30.58,ESE,115,4.0,4.0,81,0.00,,,0.00,Wunderground v.1.15,2013-11-30 03:58:00,
2013-11-29 23:08:00,26.4,21.1,30.58,ESE,115,3.0,3.0,80,0.00,,,0.00,Wunderground v.1.15,2013-11-30 04:08:00,
2013-11-29 23:18:00,26.1,21.1,30.58,SE,128,3.0,4.0,81,0.00,,,0.00,Wunderground v.1.15,2013-11-30 04:18:00,
2013-11-29 23:28:00,26.5,21.5,30.58,SE,128,3.0,3.0,81,0.00,,,0.00,Wunderground v.1.15,2013-11-30 04:28:00,
2013-11-29 23:38:00,26.7,21.7,30.58,SE,135,3.0,3.0,81,0.00,,,0.00,Wunderground v.1.15,2013-11-30 04:38:00,
2013-11-29 23:48:00,26.2,21.2,30.58,SE,134,3.0,3.0,81,0.00,,,0.00,Wunderground v.1.15,2013-11-30 04:48:00,
2013-11-29 23:58:00,25.6,20.6,30.57,ESE,123,3.0,3.0,81,0.00,,,0.00,Wunderground v.1.15,2013-11-30 04:58:00,